Theta_e
281 282 283 284 284 284 285 286 286 287 288 288 289 290 291 292 291 290 289 288 287 288 288 287 288 288 288 288 288 289 289 290 291 291 291 291 291 293 293 292 290 289 289 289 290 290 290 290 289 289 289 288 288 289 290 292 293 296 299 303 304 304 305 307 307 307 306 305 305 305 305 305 304 305
282 283 283 284 284 285 285 285 285 286 287 288 289 290 291 292 292 292 291 290 289 288 287 287 288 288 287 287 287 288 288 289 290 290 291 291 292 293 293 291 289 288 289 289 289 289 290 289 290 290 290 290 290 289 289 290 290 291 293 297 300 302 303 304 307 307 306 305 305 305 304 304 304 304
282 283 284 284 284 284 285 285 286 286 287 287 288 289 290 291 291 292 292 291 290 289 287 287 287 288 288 287 287 287 288 289 289 290 291 291 292 293 292 291 290 289 289 289 289 289 289 289 289 291 291 292 293 292 290 290 289 289 290 292 295 299 301 302 305 306 307 306 305 305 304 304 304 304
283 284 284 284 284 284 285 285 286 287 287 287 287 288 289 290 290 291 291 291 291 289 288 287 287 287 288 287 286 286 287 288 289 290 290 290 290 290 289 290 290 290 290 289 289 289 290 290 290 290 291 292 294 295 294 293 292 290 291 292 293 295 297 300 303 305 306 306 305 305 305 304 303 303
282 283 283 283 283 284 285 285 286 287 287 287 288 288 288 289 290 290 290 291 290 288 287 287 287 287 287 287 286 286 287 288 289 289 288 288 288 288 288 289 290 291 291 289 288 289 290 291 291 291 291 291 293 295 296 296 296 294 292 293 295 296 295 297 300 302 304 305 305 305 305 304 303 303
282 282 283 283 283 283 284 285 285 286 286 287 287 288 288 288 289 290 289 290 290 288 286 286 286 286 286 286 286 286 287 288 288 287 287 286 286 286 287 289 290 291 291 290 288 288 289 291 291 291 292 292 292 294 295 296 297 296 295 294 296 297 297 297 299 301 302 304 304 304 305 304 304 303
281 282 283 283 283 283 284 284 285 285 286 286 286 287 288 288 288 289 289 289 289 288 287 285 285 285 286 286 286 286 287 288 287 287 287 287 286 286 286 287 289 290 291 291 290 288 287 289 290 291 291 292 292 293 294 295 295 296 296 295 295 297 298 298 299 300 300 301 303 303 304 304 304 304
281 282 282 283 283 283 283 284 284 284 285 285 286 287 287 287 287 288 288 288 289 289 287 286 285 284 285 285 286 286 285 285 286 286 287 287 286 286 286 287 287 288 289 290 290 289 287 287 288 289 290 291 291 292 293 294 294 295 296 296 295 296 298 299 299 299 299 300 301 301 302 302 302 302
281 281 282 283 283 283 283 284 284 284 284 285 285 286 287 287 287 287 287 288 288 288 288 287 285 284 284 284 285 285 285 284 284 284 285 286 286 286 286 286 286 286 286 287 289 289 288 287 287 288 289 290 291 291 292 293 293 294 295 295 295 296 297 299 299 299 299 298 299 299 300 300 299 299
281 281 281 282 283 283 283 284 284 284 284 285 285 286 287 287 287 287 287 287 287 288 288 287 286 285 284 284 284 285 286 285 284 283 283 284 284 285 285 285 285 285 285 285 286 287 288 287 287 287 287 288 289 290 291 291 291 293 294 295 294 295 296 298 299 299 298 298 298 298 298 298 298 297
281 281 281 282 282 283 283 283 284 284 285 285 286 286 286 286 286 286 286 287 287 287 287 287 287 286 285 285 284 284 285 286 285 284 283 282 283 283 283 283 284 284 284 284 284 285 286 287 287 287 287 287 288 289 290 291 291 292 293 294 294 294 294 296 297 298 298 297 297 297 297 297 297 297
282 281 281 282 282 283 283 283 284 284 285 285 286 286 286 286 286 286 286 286 286 286 287 287 286 286 285 284 284 283 282 283 284 285 284 283 282 282 282 283 283 283 283 284 284 284 285 286 287 287 287 287 287 288 290 290 291 292 293 293 293 293 293 293 294 295 296 296 296 296 296 296 296 296
282 282 281 282 282 283 283 283 283 284 284 285 285 285 285 285 285 285 285 286 286 286 287 287 287 286 285 284 284 283 282 282 283 283 284 284 283 283 282 282 283 283 283 283 283 284 284 285 286 286 286 286 286 287 289 290 290 291 292 293 293 293 293 292 292 292 293 294 295 295 295 295 295 295
282 282 282 282 283 283 283 283 283 283 284 284 284 284 284 284 284 284 285 285 286 286 286 287 287 286 286 285 284 284 283 283 283 283 283 283 283 282 282 281 282 282 283 283 282 283 283 284 284 285 285 286 285 286 287 288 289 291 292 292 292 292 292 291 291 291 291 292 293 294 294 293 294 294
282 283 282 282 283 283 283 283 283 283 283 283 284 284 284 284 284 284 284 284 285 286 286 287 287 286 286 285 285 285 284 283 283 283 283 282 282 281 281 282 282 281 282 282 282 282 282 283 283 284 284 284 284 285 285 286 287 289 291 291 291 291 291 291 290 291 291 291 291 291 291 291 292 292
282 282 282 282 282 282 282 283 283 283 283 283 283 283 283 284 284 284 284 284 284 285 286 286 286 286 286 286 285 284 284 283 283 282 282 282 282 282 282 282 282 282 282 282 282 282 282 282 283 283 283 284 283 284 284 285 285 287 289 290 290 290 290 290 290 290 290 290 290 290 289 290 290 290
282 282 282 282 282 282 282 282 283 283 283 283 283 283 283 284 284 284 284 284 284 285 285 285 286 286 286 286 285 284 284 284 283 282 282 282 282 282 282 283 283 283 282 282 281 282 282 282 283 283 283 284 283 283 284 284 285 285 287 289 289 289 290 290 289 289 289 289 289 289 289 289 289 289
281 282 282 282 282 282 282 282 282 282 283 283 283 283 283 284 284 284 284 284 284 284 284 285 285 286 286 285 285 284 284 284 284 283 282 282 282 282 283 283 283 283 283 283 282 282 281 282 282 282 283 284 284 284 284 284 284 284 285 287 288 288 289 289 289 289 289 288 288 288 288 288 288 288
281 281 281 282 282 282 282 282 282 282 282 282 283 283 283 284 284 284 284 284 284 284 284 284 284 284 285 285 285 285 284 284 284 284 284 283 283 282 282 282 282 282 283 283 283 282 281 281 281 282 282 283 284 284 284 284 284 284 284 285 286 286 287 288 288 288 288 288 288 287 288 288 288 287
280 280 281 282 282 282 282 282 282 282 282 282 282 282 283 283 284 284 284 284 284 284 284 284 284 284 284 284 285 284 284 284 284 284 283 282 282 281 281 281 281 281 282 282 282 282 282 281 281 281 281 282 282 283 284 284 283 283 284 284 285 285 285 286 287 288 288 288 287 287 287 287 287 287
280 281 281 282 281 281 281 281 281 282 282 282 282 282 282 282 283 283 284 284 284 284 284 284 284 284 284 284 284 284 284 284 284 284 282 281 281 281 281 281 280 281 281 281 282 282 281 281 281 281 281 281 281 282 282 283 283 283 283 284 284 284 285 285 285 286 286 287 287 287 286 286 286 286
280 281 281 280 280 280 280 280 280 281 282 282 282 282 282 282 282 282 283 283 284 284 284 284 284 284 284 284 284 284 284 284 284 283 282 282 281 281 282 281 280 280 280 281 281 281 281 281 281 280 279 279 280 281 281 282 282 282 282 283 284 284 284 284 284 284 285 285 286 286 286 286 286 286
279 279 279 279 279 280 280 280 280 281 282 282 283 282 282 282 282 282 282 283 283 283 284 284 284 284 284 284 284 284 284 284 284 284 283 283 282 282 282 281 280 279 279 281 281 280 280 280 280 280 279 278 279 280 280 281 281 281 281 282 283 283 283 284 284 284 284 284 285 285 285 285 285 284
279 279 279 279 279 279 280 280 280 281 281 282 282 283 282 282 282 282 282 282 283 283 283 284 284 284 284 284 284 284 284 284 284 284 284 283 283 282 281 281 280 281 281 281 281 281 280 280 280 280 280 280 279 279 279 280 280 280 280 280 281 282 283 283 284 284 284 284 284 284 284 284 284 283
279 279 279 280 280 280 280 281 281 281 282 282 282 282 283 283 282 282 282 282 282 283 283 283 284 284 284 284 284 284 284 284 284 283 283 283 283 283 282 281 281 281 282 282 282 281 280 280 279 279 279 279 279 278 278 278 279 280 280 279 280 281 282 282 283 283 283 283 284 284 283 283 283 283
280 280 280 280 281 281 281 281 281 282 282 282 282 282 282 283 283 282 282 282 282 282 283 283 284 284 284 284 284 284 284 284 283 283 283 283 283 283 283 283 282 282 282 283 283 282 281 280 280 279 278 278 278 277 276 277 278 279 279 279 279 279 280 281 281 282 282 282 282 283 283 283 283 283
280 280 280 280 280 280 281 281 281 282 282 282 282 282 282 282 283 283 283 283 283 283 283 283 283 284 284 284 284 284 284 283 284 284 284 284 284 283 283 283 283 283 283 283 282 282 281 280 280 279 279 278 277 275 275 276 277 277 278 278 278 278 279 279 280 281 281 281 282 282 282 282 282 282
279 279 280 280 280 281 281 282 282 282 282 282 282 282 282 283 283 283 283 283 283 283 283 283 283 284 284 284 284 284 284 283 284 284 284 283 283 283 282 282 282 282 282 282 282 282 281 280 280 280 280 279 277 275 275 275 276 277 277 277 277 277 277 278 278 279 280 280 280 281 281 281 281 280
279 279 279 280 280 281 281 282 282 282 282 282 282 282 282 283 283 283 283 283 283 283 283 283 283 283 283 283 283 283 284 284 283 283 283 282 282 282 281 281 281 281 281 281 281 281 281 281 281 281 280 279 278 277 276 275 275 276 277 276 276 276 276 276 277 278 278 279 279 279 280 280 280 279
279 279 280 279 280 280 281 281 281 281 282 282 283 283 283 283 283 283 283 283 283 283 283 282 283 283 283 283 283 283 283 284 283 283 282 281 281 281 281 281 280 280 281 281 281 281 280 280 281 280 279 278 278 278 277 276 275 276 276 276 276 276 276 276 276 276 276 277 277 278 278 278 278 278
279 279 279 279 279 280 281 281 281 281 281 282 282 283 283 283 283 283 283 283 283 283 283 283 283 283 283 283 283 283 283 283 283 283 282 281 280 280 280 280 279 279 280 280 280 280 280 280 280 280 279 277 277 277 277 277 276 276 276 276 276 276 276 277 276 276 276 275 275 275 276 275 276 276
278 278 278 279 280 281 281 281 281 281 281 281 281 282 282 283 283 284 283 283 283 283 283 283 283 283 283 283 283 283 283 283 283 283 282 281 281 280 279 278 278 278 278 279 279 280 280 279 279 279 278 278 277 277 276 276 275 276 276 276 275 275 275 276 276 276 275 274 274 273 273 273 273 273
278 277 277 278 279 279 280 280 279 279 280 281 281 282 283 283 284 283 283 283 283 282 282 282 283 282 282 282 282 282 282 282 282 282 281 281 280 279 278 278 277 276 276 277 278 279 279 279 279 278 277 277 277 277 277 275 274 274 275 275 275 274 274 274 274 275 274 273 272 272 272 272 272 272
277 275 274 275 275 276 277 277 277 277 278 279 280 281 282 283 283 283 283 282 282 282 282 282 282 282 282 281 281 281 281 281 281 281 280 279 279 277 277 278 277 275 275 276 276 277 277 277 277 276 276 276 276 276 276 275 274 274 274 274 274 274 274 273 273 273 273 272 272 271 270 271 271 271
274 273 272 273 273 274 275 275 275 275 275 276 277 279 280 281 282 282 282 282 282 282 282 282 281 281 281 280 279 279 279 279 279 279 278 278 277 277 277 278 276 275 274 275 275 276 275 275 274 273 273 273 273 273 274 274 274 274 274 273 273 273 273 273 272 271 271 271 270 270 269 270 271 271
272 271 271 271 271 272 273 273 274 274 274 274 275 276 276 278 279 280 280 280 281 281 281 280 280 279 279 279 278 278 278 278 277 276 276 276 276 276 276 277 275 274 273 273 273 273 273 272 272 273 273 272 271 273 273 273 273 274 273 273 273 273 272 272 271 270 270 269 269 269 268 269 270 271
271 271 271 270 271 271 271 272 273 273 273 273 273 274 274 275 276 277 278 279 280 280 279 279 279 278 278 278 277 277 277 276 275 274 274 274 274 274 274 274 273 272 271 271 271 272 272 271 271 273 273 272 271 273 274 272 272 273 273 272 272 272 271 270 269 268 269 269 268 269 269 269 270 271
271 271 271 271 271 271 271 271 272 272 273 273 274 274 274 274 275 276 277 278 278 278 278 278 278 277 277 277 276 276 275 274 274 274 273 273 273 273 273 273 271 271 271 270 270 271 271 270 270 272 273 273 272 273 273 271 271 272 273 272 272 271 270 269 269 269 269 269 269 269 269 269 269 270
270 270 271 271 272 272 272 272 273 273 274 274 274 274 274 274 275 276 276 277 276 276 277 277 276 276 276 276 276 276 275 274 273 273 272 272 273 273 273 272 271 270 269 268 268 268 269 269 270 271 272 273 273 273 272 271 271 272 272 272 271 271 270 269 269 269 269 269 269 269 268 268 268 269
270 270 271 271 272 272 273 273 273 273 274 274 274 274 274 274 275 275 275 275 275 275 275 275 275 275 275 275 275 274 274 273 273 272 272 271 272 272 271 271 270 269 268 267 266 266 268 269 271 271 272 272 272 272 271 271 271 271 271 271 271 271 270 270 270 269 269 269 268 268 267 267 267 267
271 271 271 271 272 272 273 273 273 273 273 273 273 273 273 273 273 274 274 274 274 274 274 274 273 273 273 273 273 273 273 272 271 271 271 270 270 270 270 270 269 269 268 267 266 267 269 271 272 272 271 271 270 270 270 270 270 270 270 270 270 270 270 270 269 269 269 269 268 267 266 266 266 266
271 271 270 271 271 272 272 273 273 272 272 272 272 272 272 272 272 272 273 273 272 273 273 273 273 273 272 272 272 272 272 272 271 271 270 270 270 269 269 269 269 268 269 268 268 270 271 272 271 271 270 269 269 269 269 270 270 269 269 269 269 269 269 269 269 268 268 268 267 267 266 266 265 265
270 271 271 271 271 271 272 272 272 272 272 272 272 272 272 272 272 271 271 271 271 272 272 272 272 272 272 271 271 271 271 271 271 271 270 270 269 269 269 269 269 269 270 270 270 270 270 270 270 270 269 268 267 267 268 269 269 268 268 268 269 269 268 268 268 268 267 267 268 268 268 267 267 267
270 271 271 271 271 271 271 271 271 272 272 272 271 271 272 272 272 271 271 271 270 271 271 271 271 272 271 271 271 271 271 271 271 271 270 270 269 269 269 269 269 269 269 269 269 269 269 269 268 268 267 267 267 267 267 267 267 267 267 268 268 268 268 267 267 267 266 266 267 267 268 268 268 269
269 270 270 271 271 271 271 271 271 271 271 271 271 271 271 272 272 271 271 271 271 270 270 270 271 271 271 271 271 271 271 270 270 270 270 270 270 269 269 269 269 269 269 269 268 268 268 267 266 266 266 266 266 266 266 266 266 266 266 266 266 267 267 267 267 266 266 266 267 267 267 267 268 268
Wind_Speed
34 31 30 29 29 30 29 30 32 32 32 32 30 30 26 17 8 7 7 5 6 16 22 21 27 34 36 36 39 41 41 42 42 42 43 44 45 45 42 40 40 38 37 36 35 35 35 35 34 34 35 35 35 36 35 34 33 31 29 28 26 25 26 31 35 35 33 32 32 32 32 30 29 30
32 29 28 28 28 29 29 31 32 30 31 33 32 31 31 27 18 9 6 7 9 13 20 24 26 31 35 37 37 39 41 40 39 39 40 41 41 42 40 37 37 36 35 34 34 34 34 33 33 32 31 32 33 34 34 34 34 32 31 30 30 28 26 26 31 35 34 32 32 32 32 31 29 29
30 27 26 26 25 27 28 29 30 29 30 32 31 31 31 29 26 18 8 6 11 15 19 24 27 29 33 37 36 36 39 39 38 36 37 37 37 36 35 34 35 35 35 34 33 33 33 33 32 31 30 28 27 29 32 33 33 32 31 30 30 30 28 25 27 32 34 33 33 32 33 33 30 29
24 22 21 22 22 23 24 25 25 26 28 28 29 31 30 26 24 20 12 5 8 16 20 23 26 24 26 33 35 34 35 36 35 33 32 32 31 30 31 32 34 34 35 34 33 31 31 31 31 31 31 29 26 25 26 28 30 30 30 29 28 30 30 27 25 27 31 35 35 34 33 33 32 31
20 18 18 19 21 22 22 23 23 24 25 25 25 27 27 25 22 16 11 5 4 10 16 18 22 21 22 30 35 34 34 34 32 30 29 28 29 30 30 30 30 31 33 34 34 31 28 27 28 30 31 31 29 25 24 24 25 27 29 27 25 26 28 28 27 26 27 31 35 35 34 33 34 34
19 17 17 18 19 21 21 22 21 23 24 22 21 24 24 22 20 17 12 7 3 5 10 15 19 20 21 27 31 32 33 32 30 30 29 28 28 29 29 28 28 27 28 31 33 33 29 25 25 27 28 30 29 26 25 24 24 25 27 28 26 24 24 26 26 27 27 27 30 33 33 33 32 33
18 17 17 17 17 18 19 20 20 20 21 19 18 23 23 18 16 16 14 10 5 4 8 13 17 20 22 25 27 29 29 28 27 27 26 26 27 28 28 28 27 25 24 26 29 32 32 27 25 26 27 28 27 25 25 27 27 26 26 27 28 27 26 25 25 27 29 28 28 29 31 32 31 29
18 18 18 18 18 18 17 18 18 17 20 20 18 19 19 16 14 14 14 12 9 7 7 10 14 19 23 22 22 25 25 23 24 23 22 23 24 25 25 25 25 24 22 22 24 28 31 30 27 26 26 27 27 25 25 27 27 28 27 26 28 29 29 28 28 27 29 29 29 30 30 30 29 28
20 19 19 19 20 19 18 18 16 15 19 20 18 17 17 16 15 14 14 13 11 11 11 11 11 13 17 18 17 21 22 21 20 20 20 21 21 21 22 22 22 23 22 20 20 23 27 29 29 26 25 26 26 25 26 27 26 27 27 27 29 30 30 31 31 29 29 29 30 30 31 30 29 28
22 22 22 21 20 18 19 19 17 15 18 18 17 17 17 16 16 15 14 12 11 12 13 14 13 12 12 14 15 17 19 20 19 18 17 18 19 20 21 21 21 20 20 19 19 19 22 26 29 28 26 24 23 22 25 27 27 27 27 27 29 31 30 31 32 31 29 29 30 30 30 31 30 29
23 23 25 25 22 20 20 21 20 18 18 19 18 18 17 17 16 14 12 11 11 12 12 12 15 16 14 12 12 14 16 16 17 18 17 16 18 20 20 21 20 18 18 17 17 18 19 20 25 28 28 27 25 21 22 25 28 28 28 26 28 31 31 30 32 33 30 28 30 30 29 30 31 30
22 23 25 26 24 22 22 22 22 22 20 20 20 20 20 20 18 14 13 12 12 13 13 12 13 16 15 12 10 11 14 14 14 19 21 19 19 20 19 19 18 16 17 16 15 16 17 18 21 24 27 29 28 25 22 23 26 27 26 25 26 30 31 30 30 32 32 31 30 31 31 30 30 31
20 22 22 24 24 23 23 22 22 22 22 21 22 22 22 22 20 16 14 13 12 12 13 12 13 13 12 12 12 12 16 18 16 18 20 17 17 20 18 17 17 16 16 16 17 17 17 18 19 21 24 27 29 28 25 24 26 25 22 23 26 29 30 30 29 30 32 33 32 31 32 33 32 32
16 19 21 22 23 23 23 22 21 21 21 22 22 21 22 22 22 18 15 15 14 13 13 13 14 12 10 14 16 15 19 20 16 16 18 15 15 17 13 12 16 18 18 18 19 19 18 18 18 20 23 25 27 29 28 27 28 26 21 21 25 27 28 29 29 29 30 32 33 32 32 33 34 33
13 15 17 19 20 21 21 21 21 21 21 21 21 20 21 22 23 21 19 17 16 15 15 16 17 14 13 16 19 18 19 19 17 18 19 17 18 18 12 8 12 19 22 20 19 19 19 19 19 20 22 23 24 27 28 28 29 27 22 21 23 25 26 28 28 28 29 30 32 33 32 33 34 34
13 13 13 14 16 17 19 20 21 21 21 22 21 21 21 21 23 23 23 21 19 17 17 17 18 18 17 18 20 21 20 20 19 19 19 20 22 21 15 10 11 18 24 22 18 19 20 20 21 22 23 24 24 24 25 26 29 28 24 21 20 21 23 25 27 26 27 28 30 32 32 31 32 32
11 12 12 13 13 14 15 17 19 20 21 21 22 22 23 22 22 23 24 24 23 21 20 18 18 20 19 19 21 24 23 22 20 17 18 22 24 23 21 18 15 17 23 24 20 18 21 23 23 24 24 23 25 25 24 24 26 27 26 23 20 19 19 22 25 26 26 27 28 29 30 29 29 30
10 10 11 12 13 14 15 16 17 18 19 20 21 22 24 25 24 24 24 25 25 25 24 23 21 21 20 20 22 25 25 25 23 22 22 23 24 25 24 22 18 17 21 25 20 15 19 24 24 23 23 22 23 25 25 25 24 24 26 26 25 22 19 19 22 23 25 26 27 28 29 28 28 27
13 12 12 13 14 15 17 17 17 18 18 19 20 21 23 24 25 26 26 26 26 26 26 26 26 24 24 23 22 23 26 28 28 27 27 25 24 24 20 17 16 17 20 25 20 11 14 23 23 21 22 21 20 22 24 26 26 23 20 21 24 24 23 20 20 21 21 23 26 27 27 27 27 26
14 14 15 14 12 12 14 15 16 17 18 19 20 21 22 22 22 24 26 27 27 27 27 28 27 26 25 24 24 25 26 28 28 26 23 22 21 19 13 11 14 18 21 25 21 11 10 19 21 18 18 19 19 20 21 23 25 24 20 18 19 21 21 21 21 21 21 21 24 28 28 27 27 26
16 16 16 14 12 12 12 13 14 15 17 18 19 20 21 21 20 21 24 26 27 27 27 28 29 27 25 24 25 27 26 26 28 25 19 19 20 17 10 7 10 17 22 24 23 14 9 16 20 15 14 17 18 18 19 20 22 21 20 20 20 20 20 21 22 22 22 23 23 25 28 28 28 27
14 14 14 14 14 16 16 16 16 16 18 20 20 21 21 21 20 20 22 24 25 26 26 28 29 28 27 25 24 26 26 26 29 28 23 23 23 18 11 9 9 12 19 25 24 15 9 14 18 15 10 12 16 18 18 19 20 20 20 19 20 21 22 22 23 22 23 25 25 24 25 27 28 28
15 16 17 18 19 21 22 21 20 18 20 22 23 24 22 20 20 22 22 23 25 26 26 26 27 27 27 27 26 25 25 26 29 31 29 28 27 22 16 15 11 6 13 25 25 17 12 15 19 16 9 4 10 18 20 19 19 21 22 21 20 21 23 23 23 24 24 26 26 25 24 25 25 26
17 17 18 19 19 20 20 20 20 20 21 22 23 24 24 23 23 23 25 25 26 26 26 26 26 25 25 26 27 26 25 26 29 31 31 30 30 27 23 23 19 10 12 24 29 22 17 18 20 21 16 6 4 12 20 22 21 21 22 24 24 23 23 23 22 23 24 25 24 24 24 23 22 24
17 17 18 18 18 17 17 18 19 20 22 23 24 24 24 25 26 25 25 26 26 26 26 24 23 23 23 23 25 26 25 26 28 31 31 31 30 29 27 27 25 17 14 21 29 28 23 21 22 23 20 11 5 7 14 20 24 24 23 25 26 26 25 24 22 22 23 24 24 24 24 24 24 26
15 16 17 17 18 18 18 19 20 21 22 24 25 26 26 26 26 25 24 24 25 25 24 21 19 20 20 21 24 26 25 25 27 29 30 30 29 28 28 27 27 24 20 21 28 30 26 23 25 25 22 16 10 8 10 14 20 25 26 25 27 28 27 26 26 24 24 25 26 26 25 26 27 28
13 14 16 16 17 17 17 19 20 21 23 24 25 27 27 27 26 26 25 24 24 23 21 19 18 18 18 19 22 25 27 27 28 28 27 28 28 28 27 26 26 26 24 22 27 31 28 24 25 27 26 22 15 9 9 11 15 21 27 28 27 28 28 28 28 28 27 27 27 27 27 27 26 25
11 13 14 14 15 15 16 16 16 18 21 24 25 25 25 25 25 25 25 25 24 21 18 18 18 18 18 17 18 22 26 29 29 27 26 27 27 27 26 25 24 24 24 22 23 27 27 24 23 25 27 25 20 14 10 11 13 19 24 26 27 28 29 29 29 29 28 27 28 29 29 28 27 26
10 12 13 14 15 15 14 12 11 13 16 19 25 25 22 21 21 22 25 25 22 20 19 18 18 17 17 17 16 18 22 24 25 26 25 25 25 25 24 23 22 22 22 21 20 22 25 26 24 24 25 26 26 22 16 14 15 18 21 23 24 26 29 30 30 30 30 29 29 30 31 30 29 29
9 11 12 13 12 11 10 9 8 8 8 8 17 21 20 18 18 20 24 24 21 20 19 18 18 19 19 19 18 19 20 21 23 25 25 24 23 24 23 22 21 21 21 22 21 21 24 27 26 24 25 25 25 25 22 18 17 18 20 22 22 21 24 29 31 30 30 31 31 31 32 32 32 31
10 10 10 10 7 5 7 7 6 5 5 3 8 12 14 14 15 20 25 26 24 22 20 19 19 20 21 21 20 21 22 22 24 25 25 24 23 23 23 21 20 20 21 21 22 22 24 26 26 26 25 23 23 24 24 22 21 21 22 24 23 19 19 24 30 31 31 30 30 31 31 32 33 33
8 7 5 4 2 3 5 4 2 3 5 6 7 9 11 13 15 20 26 26 24 21 20 19 19 20 21 21 21 21 21 22 24 25 24 24 24 24 22 19 17 19 20 21 22 23 24 26 27 27 26 24 23 24 24 22 22 22 22 24 26 24 20 19 23 27 29 29 29 29 30 31 31 32
10 10 11 11 9 7 6 4 3 2 1 4 7 8 11 13 15 19 23 22 19 20 21 22 22 21 21 21 21 22 21 21 24 26 24 24 24 23 22 18 17 19 20 21 23 24 24 26 27 27 27 26 24 24 23 22 21 22 22 22 25 27 25 21 19 21 25 27 28 29 29 30 30 30
17 17 16 16 15 12 10 9 8 7 5 5 6 8 11 13 13 17 20 18 18 21 23 23 22 22 21 20 21 21 21 22 24 25 25 23 22 22 21 17 16 19 20 20 23 25 25 25 26 24 24 24 23 22 24 23 22 22 22 22 23 26 27 25 22 21 22 25 27 28 29 30 30 30
21 19 16 16 16 15 13 13 12 10 8 9 10 12 13 13 15 18 20 19 20 22 22 21 21 22 22 21 20 19 20 22 22 23 23 22 21 21 21 18 17 20 21 22 25 27 26 25 24 20 16 16 15 16 21 23 22 21 22 23 24 25 26 26 25 24 23 24 25 25 26 28 29 28
21 19 17 16 16 16 16 15 14 12 12 13 12 13 14 14 14 15 16 17 19 20 20 20 20 20 20 20 19 19 20 20 20 19 20 20 18 17 17 16 16 17 19 20 24 27 26 23 22 18 12 8 6 8 14 21 23 22 22 24 25 26 26 25 25 25 25 25 25 25 25 27 28 27
21 20 19 18 17 16 16 15 15 15 16 17 17 16 16 16 15 14 13 12 13 14 14 15 16 16 17 17 17 17 17 17 17 17 16 17 16 14 13 13 13 14 16 16 20 25 25 22 20 18 12 6 5 5 8 14 21 24 25 25 25 25 26 24 24 26 27 27 27 28 28 29 29 27
22 20 20 19 18 17 16 15 16 17 17 19 20 19 18 17 16 15 13 12 12 11 10 11 12 13 14 15 15 15 15 15 15 15 15 16 16 14 12 12 12 14 15 16 18 23 24 21 20 20 14 7 5 6 6 8 15 23 27 27 27 26 25 25 26 27 28 29 30 30 31 31 30 27
21 21 20 20 19 18 17 17 18 19 20 20 20 19 18 16 16 15 14 13 12 10 9 9 9 10 10 11 12 13 14 14 14 15 15 15 15 13 13 13 14 14 15 16 17 21 24 23 21 23 21 15 10 10 11 11 15 19 22 23 26 27 26 27 28 28 29 30 30 29 29 28 27 25
20 20 20 20 19 18 17 18 18 19 19 20 19 18 17 16 15 14 13 12 11 9 8 7 6 7 8 8 10 11 12 13 14 14 14 14 14 13 13 14 15 16 16 15 15 19 24 27 26 26 26 22 16 14 13 11 12 15 16 18 21 25 26 28 29 29 29 28 27 26 26 25 24 23
19 20 19 19 19 18 17 16 16 16 17 18 18 17 17 15 14 13 12 10 9 7 6 5 4 4 5 7 8 9 10 11 12 12 13 13 12 13 14 14 14 15 14 12 15 21 26 28 28 26 24 21 17 13 8 6 8 12 16 18 19 21 23 24 25 26 26 25 23 23 24 23 21 21
18 18 18 17 17 17 16 15 14 14 14 15 15 16 16 15 14 12 10 8 7 6 5 4 3 2 3 5 6 7 9 10 10 11 12 12 13 13 14 14 15 16 15 14 17 23 24 23 24 23 21 20 18 12 7 7 10 12 15 17 18 19 20 20 21 22 23 23 22 22 21 16 12 11
17 17 17 16 15 15 15 14 13 13 12 12 12 13 13 13 12 11 10 8 6 4 4 4 3 2 1 2 5 6 7 8 9 10 11 13 14 15 16 17 17 18 18 17 17 18 17 17 19 20 20 20 20 17 14 15 16 15 15 16 17 19 20 20 20 21 22 23 25 26 24 20 14 11
16 16 16 15 14 14 13 12 12 11 10 9 9 9 9 9 9 9 9 8 6 4 3 3 4 4 3 3 3 5 6 7 8 9 11 13 14 15 16 17 17 17 17 16 13 12 13 15 16 18 19 21 22 23 22 21 19 19 19 18 18 19 21 21 22 23 23 25 27 28 29 29 27 24
14 14 14 14 13 13 13 12 11 9 8 7 7 6 6 6 5 5 6 6 5 4 3 2 3 4 4 4 4 5 6 7 8 9 11 12 14 15 16 16 16 17 17 16 14 14 14 14 14 17 20 22 22 24 24 23 20 20 20 19 20 21 21 22 24 26 28 31 32 30 30 30 31 30
Wind_Direction
263 249 243 246 247 248 246 244 247 250 248 243 237 235 231 221 209 206 207 199 201 211 209 209 215 216 218 220 220 221 223 224 222 220 219 220 219 218 220 221 221 220 220 221 223 225 227 229 231 233 235 235 237 239 240 239 239 239 237 234 235 237 233 226 220 217 216 215 214 214 214 214 218 215
261 245 241 244 244 245 245 245 246 247 249 246 239 236 234 230 224 215 209 205 197 200 205 211 216 214 214 217 218 219 221 223 222 220 220 221 221 220 220 221 221 220 220 220 221 224 226 228 230 232 234 235 235 237 239 240 241 242 241 240 239 240 240 235 224 218 218 217 216 216 216 215 217 216
258 238 237 241 240 243 243 243 245 244 245 242 237 235 233 230 226 217 208 212 205 197 200 210 216 217 215 215 215 216 218 220 220 220 221 222 222 221 220 222 224 222 221 219 220 223 225 227 228 230 231 231 231 233 236 239 240 242 242 242 242 241 241 238 229 221 219 217 215 216 217 216 215 215
255 232 234 240 240 243 241 239 239 239 241 237 233 233 230 227 227 218 207 211 203 198 203 209 211 216 217 212 211 212 214 217 219 220 221 220 220 219 219 223 225 223 220 218 218 220 223 225 226 228 229 228 226 226 229 232 235 237 239 239 241 241 240 237 232 226 223 220 216 215 218 217 215 215
260 243 240 243 247 247 243 240 238 237 238 233 229 229 225 221 223 218 206 204 188 188 198 204 204 208 209 207 209 211 212 213 213 213 215 217 219 220 220 222 225 222 218 215 213 213 216 220 223 225 227 228 226 224 224 224 225 229 231 231 232 236 238 238 233 228 226 224 219 216 218 218 216 216
261 255 247 247 253 252 246 244 240 238 237 231 222 222 217 211 211 212 205 197 179 175 184 188 193 199 200 200 203 207 208 208 205 206 210 214 219 222 221 221 223 221 218 215 213 210 210 214 219 222 224 226 226 224 222 221 219 220 224 224 222 225 231 233 230 226 224 224 222 219 219 218 216 217
257 255 251 251 254 253 250 248 244 240 238 233 222 217 211 204 203 206 203 195 181 176 180 180 183 189 194 197 199 203 207 207 204 205 208 211 216 221 223 223 224 223 220 217 215 212 210 211 215 218 219 222 223 224 223 223 222 220 220 220 218 218 223 223 223 223 222 221 221 219 218 217 215 214
254 252 251 252 255 254 251 249 244 237 235 233 225 213 205 202 205 206 204 200 192 186 186 186 187 187 188 192 196 197 199 202 204 205 207 210 216 221 224 226 226 227 223 219 218 215 212 212 212 216 219 218 218 219 221 222 222 218 216 219 217 215 218 219 220 222 221 219 219 219 217 216 215 211
253 249 248 249 253 250 247 247 241 228 226 226 218 209 204 205 209 208 207 205 197 193 193 192 196 193 185 183 187 189 190 189 193 199 205 211 216 221 225 228 228 228 226 222 219 217 215 214 212 212 216 218 216 219 221 221 220 216 215 220 219 214 215 217 219 221 222 221 219 220 220 217 215 212
252 246 245 246 246 242 241 244 239 228 223 220 213 211 213 212 211 209 207 203 196 198 199 195 196 200 192 181 179 187 193 189 186 189 197 208 215 218 222 225 226 227 227 224 219 216 215 215 214 212 212 212 213 221 225 222 220 217 216 220 221 217 215 215 216 216 218 221 218 216 218 217 215 213
249 243 244 245 242 237 238 241 240 233 224 219 217 218 222 222 215 210 208 202 196 198 201 197 196 200 200 191 186 191 195 195 195 192 189 197 210 215 219 221 221 222 223 223 219 216 214 213 214 214 212 209 209 215 222 223 221 219 218 220 220 218 218 217 215 212 212 217 216 212 213 213 212 211
244 240 243 245 244 241 242 243 242 238 229 222 221 222 225 226 219 213 209 204 200 198 199 198 195 197 197 191 189 188 184 186 198 202 197 194 199 206 213 219 221 220 219 219 217 214 212 211 211 212 213 212 210 209 214 220 222 221 221 221 218 216 217 218 218 215 214 215 214 212 212 212 212 212
244 241 242 245 245 244 244 245 243 241 237 231 227 226 227 225 219 214 210 205 201 201 201 198 189 188 189 188 183 181 188 193 199 204 201 197 198 201 204 211 218 220 219 217 216 213 210 209 208 208 210 212 211 210 212 217 219 219 220 221 218 215 216 218 220 218 216 215 215 214 214 214 214 214
246 242 241 242 244 243 243 243 240 239 237 236 235 234 232 227 219 211 206 205 204 203 204 202 193 186 186 193 192 195 205 206 200 196 195 192 190 188 188 203 213 215 216 214 215 216 215 212 209 208 208 209 210 211 214 218 220 219 216 214 215 215 214 215 216 216 214 213 214 214 213 214 215 214
244 240 240 240 241 239 238 237 236 234 233 233 235 237 237 233 226 215 207 204 202 203 209 209 203 196 192 196 199 203 209 210 206 201 196 186 177 174 174 190 205 209 209 207 207 211 215 215 214 214 212 209 210 212 215 218 221 222 218 209 207 208 208 208 209 211 211 212 212 213 213 213 213 212
245 237 237 238 237 237 236 234 233 231 230 231 233 236 238 237 232 224 218 213 206 202 209 212 209 206 200 197 199 203 205 206 207 204 197 190 185 184 186 187 194 203 203 199 198 205 210 212 213 216 216 212 212 213 215 218 221 223 220 209 202 201 202 204 205 207 208 208 210 212 213 213 213 212
259 239 235 236 238 240 238 235 234 231 230 230 230 232 234 235 235 231 227 226 220 211 209 212 214 213 206 200 202 206 206 202 199 197 196 197 195 195 198 201 199 199 196 193 192 199 207 210 211 216 217 214 213 213 213 217 221 223 222 215 206 200 198 201 206 208 209 209 209 211 214 216 216 217
287 259 248 251 254 254 248 241 238 236 234 233 230 228 228 228 230 230 228 229 228 222 215 214 217 216 212 211 213 213 211 206 202 201 202 203 202 203 208 212 209 201 198 197 193 194 205 207 209 215 217 215 215 215 215 216 219 222 224 221 215 209 203 201 202 205 208 211 213 214 215 216 217 218
292 281 271 270 269 264 256 249 244 240 237 236 232 229 227 225 225 225 226 226 226 225 222 220 220 219 217 217 219 219 219 217 213 211 210 208 207 206 207 209 206 202 202 201 195 188 199 203 204 212 217 216 216 217 217 218 219 220 220 220 220 217 214 209 203 201 204 208 213 216 218 218 218 218
279 275 268 265 263 261 258 255 250 243 237 234 230 229 229 227 224 224 225 227 226 224 226 227 227 227 224 221 220 222 224 223 221 218 215 211 204 196 189 187 193 197 199 200 198 189 190 200 204 208 213 216 218 219 219 219 219 220 217 215 217 217 216 213 208 207 206 206 213 219 221 221 222 223
263 263 261 258 254 253 255 254 250 242 236 232 228 227 227 225 225 225 226 228 228 225 226 228 230 231 229 225 224 225 226 226 223 215 208 205 197 185 177 180 187 194 198 199 200 198 191 198 202 203 209 216 221 223 223 221 219 220 220 218 218 218 217 216 214 214 213 212 217 222 223 223 224 223
263 261 260 258 257 258 260 260 255 244 236 231 227 226 225 221 220 223 224 226 228 228 228 228 228 229 228 225 224 225 226 227 223 214 207 203 195 185 185 187 177 191 202 200 198 197 195 197 198 194 197 215 224 226 226 224 220 219 219 219 221 222 222 222 221 221 221 221 222 224 223 222 221 220
274 269 265 264 263 263 264 264 258 246 237 234 229 224 220 216 217 220 220 221 223 225 227 228 225 224 223 220 220 221 224 226 224 219 214 208 198 192 191 183 166 171 209 203 197 193 193 195 194 190 181 201 232 228 226 225 222 220 219 217 217 219 221 222 223 222 223 223 223 223 222 220 218 218
275 271 267 265 262 260 261 259 254 246 240 237 234 226 215 212 217 220 218 217 219 220 222 225 224 221 219 216 215 217 221 223 222 220 216 210 205 201 195 187 183 192 211 202 197 196 198 198 197 197 197 199 224 222 222 223 221 220 221 220 217 216 216 218 220 221 221 222 221 221 222 220 218 220
265 264 263 262 259 259 260 255 250 248 243 238 237 232 222 218 221 220 217 216 217 217 218 219 219 217 215 211 210 212 215 216 217 216 213 211 210 207 202 196 194 200 210 203 199 199 199 199 198 197 201 209 210 202 212 219 220 219 220 222 222 219 216 216 218 219 220 221 223 224 224 223 222 222
262 263 264 264 263 261 260 255 250 249 246 240 237 235 231 228 224 218 216 216 212 211 212 212 210 209 208 206 206 208 210 212 214 214 212 213 214 214 214 213 209 210 214 207 201 201 201 202 200 196 196 204 209 200 200 211 218 219 219 221 223 222 220 219 219 219 218 217 220 223 223 224 223 222
279 278 274 272 270 264 259 258 254 249 245 240 237 236 234 232 226 216 211 209 206 203 202 202 202 203 203 203 204 204 206 209 212 213 212 214 217 216 217 220 221 223 224 215 204 203 205 206 205 203 202 202 198 194 200 207 213 217 218 221 223 222 221 222 222 222 222 220 220 222 222 223 222 220
301 297 291 284 278 271 265 262 259 258 254 243 236 234 232 233 229 216 203 200 199 197 195 196 199 201 201 203 204 202 201 204 207 210 211 214 216 216 215 217 219 223 226 221 212 210 212 212 211 212 212 208 200 197 204 208 210 215 216 218 221 222 221 222 223 224 225 224 223 222 223 223 223 223
317 310 304 294 282 274 269 264 263 275 272 245 229 227 225 227 227 212 198 194 193 192 192 194 197 199 199 201 204 201 197 197 199 203 205 207 210 213 213 214 216 218 221 221 219 218 218 219 220 220 217 214 212 210 209 206 210 216 216 215 219 223 222 222 223 224 225 225 225 224 225 226 227 228
323 311 303 296 286 269 256 255 265 289 296 240 217 219 218 218 218 204 193 189 188 189 191 191 193 196 197 198 200 201 199 197 197 200 200 199 201 206 208 208 210 214 218 220 221 220 218 221 226 224 217 215 217 218 217 213 211 215 217 215 217 223 225 224 225 225 225 227 228 228 230 231 232 233
336 323 312 303 294 253 226 238 260 284 298 234 200 204 206 209 210 200 192 190 189 189 189 188 188 191 194 193 192 193 193 194 198 204 202 195 195 201 203 202 204 209 215 218 219 218 217 219 224 224 219 215 216 219 221 221 217 216 217 216 214 217 223 225 226 227 228 229 231 233 234 235 236 236
349 348 359 10 40 158 184 209 248 266 261 241 221 214 210 210 207 198 192 189 188 186 184 184 185 187 190 190 189 188 187 190 198 203 202 200 201 200 197 196 199 203 208 212 214 216 217 218 221 224 223 223 223 221 219 219 220 220 220 218 216 217 222 224 225 228 230 230 232 235 236 236 237 237
37 42 46 51 64 86 97 83 41 355 278 226 226 219 207 201 195 187 183 180 179 180 181 182 185 187 188 191 193 192 189 192 200 203 201 201 202 199 195 197 200 199 200 204 207 209 212 215 218 221 223 225 228 227 221 218 220 222 222 221 219 219 222 225 225 227 228 228 230 233 236 237 237 236
50 47 43 44 51 61 66 60 45 34 54 101 122 140 160 168 163 164 169 172 176 181 183 184 186 189 190 191 193 192 190 194 199 200 199 197 195 193 193 197 200 200 199 202 205 205 206 209 211 214 218 221 225 228 225 221 221 223 222 223 223 223 224 225 225 225 227 228 229 231 234 237 238 237
49 43 40 39 45 54 57 55 51 48 57 77 92 107 124 137 144 152 162 170 177 181 183 182 184 189 192 191 188 188 191 194 194 195 196 195 192 193 196 197 199 200 199 202 205 204 203 203 201 199 205 212 218 227 229 225 224 224 220 220 224 226 226 226 225 225 226 226 227 228 232 237 239 238
48 43 43 40 41 49 55 57 61 64 67 73 83 94 102 111 126 141 151 162 171 176 178 178 179 184 189 190 189 190 192 191 189 188 191 192 191 192 197 199 198 197 196 201 205 202 198 195 192 188 190 196 203 225 230 225 225 226 223 222 224 225 224 225 224 222 223 223 224 225 229 236 241 241
48 44 44 42 42 48 54 60 66 68 70 74 79 84 88 93 102 113 124 141 155 160 166 172 176 180 184 186 187 188 189 189 187 187 190 193 192 190 192 195 193 190 192 201 206 202 196 192 189 189 190 190 195 216 227 224 225 228 228 227 228 227 225 222 219 220 224 226 228 231 234 239 244 246
47 44 42 40 43 49 54 60 65 65 68 73 77 80 84 88 94 101 106 114 123 132 147 160 167 173 179 182 182 183 184 186 189 190 191 193 193 192 192 190 188 189 193 199 203 200 196 194 193 194 193 186 197 214 212 209 221 229 230 230 232 232 227 221 221 225 229 230 233 236 238 240 244 246
48 48 45 43 46 52 58 64 67 68 69 71 73 75 77 79 83 87 90 94 100 109 122 137 151 162 171 178 184 186 187 188 190 193 195 196 196 196 194 190 188 189 190 193 197 198 196 195 197 200 201 203 210 219 216 213 225 234 235 233 234 234 231 227 227 230 231 231 232 234 236 238 243 245
48 50 50 50 52 56 61 66 69 71 72 72 72 72 72 72 73 74 76 80 84 89 97 111 134 152 163 175 184 186 189 192 195 198 199 198 198 198 196 194 192 190 187 188 193 196 199 202 206 208 209 212 219 227 229 229 236 241 239 236 235 235 235 234 232 230 230 231 230 230 232 235 238 239
49 51 52 55 58 60 63 65 67 71 75 75 75 74 73 72 74 75 76 78 78 81 89 98 115 140 161 178 184 184 187 191 196 200 200 198 199 200 200 196 191 188 185 186 195 202 207 211 213 214 215 217 221 226 232 234 237 238 236 234 233 233 235 238 236 234 236 236 230 224 226 230 234 238
51 52 53 56 60 63 65 66 67 69 72 74 75 75 73 72 74 78 82 87 89 96 108 116 124 147 170 180 186 192 195 197 201 205 203 200 198 198 198 196 193 194 194 197 205 212 215 217 218 217 219 221 219 217 222 231 231 232 233 232 231 229 230 233 233 233 237 236 227 220 219 218 222 235
51 54 53 53 58 63 66 68 68 67 67 69 72 72 70 69 71 75 79 86 99 116 130 137 144 164 200 197 194 200 205 208 212 213 210 207 204 200 200 201 201 203 205 207 213 217 218 220 221 220 220 221 218 216 224 233 234 232 232 231 230 228 227 228 229 231 234 236 234 231 230 226 221 225
52 55 53 51 51 54 58 62 63 63 64 66 71 73 70 67 69 73 72 73 84 104 124 140 155 180 217 231 216 213 217 222 222 221 220 219 214 209 209 209 208 209 211 210 213 217 219 223 224 221 219 221 220 219 225 232 235 236 235 232 230 229 227 226 227 229 232 236 238 239 240 240 241 245
52 54 53 51 48 47 47 48 49 50 51 51 57 65 68 65 68 74 70 62 58 64 85 134 169 194 213 224 228 231 233 233 230 228 227 225 221 218 217 216 215 216 216 214 215 219 222 223 221 220 222 225 225 225 228 232 235 239 239 236 234 233 232 229 228 228 231 236 240 241 242 245 249 253